CDT,Max TemperatureF,Mean TemperatureF,Min TemperatureF,Max Dew PointF,MeanDew PointF,Min DewpointF,Max Humidity, Mean Humidity, Min Humidity, Max Sea Level PressureIn, Mean Sea Level PressureIn, Min Sea Level PressureIn, Max VisibilityMiles, Mean VisibilityMiles, Min VisibilityMiles, Max Wind SpeedMPH, Mean Wind SpeedMPH, Max Gust SpeedMPH,PrecipitationIn, CloudCover, Events, WindDirDegrees
2013-7-1,84,69,54,58,53,50,86,59,31,30.25,30.20,30.16,10,9,4,31,4,40,0.00,0,,347
2013-7-2,87,73,59,61,53,45,84,55,25,30.17,30.12,30.06,10,10,10,18,4,28,0.00,3,,335
2013-7-3,87,73,59,61,57,52,84,58,32,30.05,29.97,29.88,10,10,7,14,6,18,0.00,0,,158
2013-7-4,91,77,62,61,58,55,78,57,36,29.88,29.80,29.71,10,10,10,20,13,28,T,1,Rain,167
2013-7-5,91,79,66,68,61,55,73,56,38,29.78,29.75,29.73,10,10,10,14,7,20,T,0,Rain,169
2013-7-6,92,83,73,69,65,60,71,58,44,29.75,29.72,29.69,10,10,10,18,10,23,T,1,,150
2013-7-7,90,79,68,71,67,63,93,75,53,29.94,29.84,29.75,10,9,5,26,4,32,0.12,1,Rain-Thunderstorm,29
2013-7-8,91,78,64,73,68,63,93,73,47,29.99,29.93,29.85,10,10,6,14,5,17,0.00,0,,122
2013-7-9,86,77,67,72,67,63,90,71,51,30.03,29.93,29.80,10,8,0,26,9,33,1.98,3,Fog-Rain-Thunderstorm,297
2013-7-10,81,72,62,64,60,56,93,69,45,30.14,30.08,30.01,10,10,7,9,5,12,0.00,0,,32
2013-7-11,88,77,65,65,63,60,87,65,43,30.05,29.95,29.83,10,10,10,28,15,39,T,1,Rain-Thunderstorm,159
2013-7-12,93,82,70,72,67,61,73,60,47,29.86,29.79,29.72,10,10,10,29,16,39,0.00,0,,172
2013-7-13,89,82,75,77,73,71,94,80,63,29.92,29.86,29.83,10,9,6,30,6,32,T,1,,112
2013-7-14,80,76,71,73,71,67,93,84,74,30.14,30.02,29.89,10,8,3,22,8,35,0.85,7,Rain-Thunderstorm,139
2013-7-15,86,78,70,67,65,62,90,69,48,30.16,30.12,30.07,10,10,8,18,10,24,0.00,3,,159
2013-7-16,87,78,69,67,65,62,84,65,45,30.18,30.14,30.10,10,10,7,22,11,28,0.00,0,,179
2013-7-17,91,81,70,69,66,64,84,64,44,30.22,30.15,30.06,10,10,10,18,11,24,0.00,0,,175
2013-7-18,95,85,75,71,68,65,79,60,41,30.06,29.90,29.77,10,10,10,21,11,29,0.00,0,,190
2013-7-19,85,76,67,70,61,54,93,65,37,29.99,29.92,29.82,10,10,10,15,5,20,0.00,0,,333
2013-7-20,80,72,64,66,63,59,87,71,54,30.05,29.94,29.87,10,9,2,24,7,49,0.81,4,Rain-Thunderstorm,34
2013-7-21,84,73,61,69,64,58,93,76,58,29.97,29.83,29.74,10,10,10,25,5,31,0.01,1,Rain-Thunderstorm,163
2013-7-22,82,73,64,69,63,58,84,68,51,29.89,29.79,29.66,10,10,10,16,9,22,0.00,0,,335
2013-7-23,78,69,60,61,58,48,90,73,38,30.05,29.99,29.91,10,10,10,13,5,17,0.03,1,Rain-Thunderstorm,51
2013-7-24,84,71,58,65,60,57,93,70,46,30.10,30.04,29.97,10,10,10,9,3,13,0.00,2,,172
2013-7-25,80,71,61,66,63,60,93,76,56,30.03,29.98,29.96,10,10,10,13,5,16,T,1,,294
2013-7-26,72,62,51,58,50,47,83,67,44,30.22,30.15,30.05,10,10,10,20,11,28,0.00,3,,347
2013-7-27,71,58,45,50,46,42,90,65,40,30.20,30.14,30.06,10,10,10,74,5,17,0.00,0,,337
2013-7-28,75,59,43,52,47,43,93,63,33,30.09,30.05,30.01,10,10,10,10,4,17,0.00,0,,114
2013-7-29,68,61,54,59,55,49,90,76,65,30.05,30.03,30.01,10,10,8,20,10,24,0.04,6,Rain,148
2013-7-30,78,69,59,64,61,57,97,81,64,30.12,30.08,30.05,10,7,0,14,3,18,0.01,6,Fog-Rain,33
2013-7-31,82,70,58,64,60,57,100,74,47,30.17,30.12,30.05,10,8,2,32,3,46,0.02,3,Rain,313